Weather History for Caldwell, ID

Change the Weather History Date:

Sunday, February 17, 2013

  Actual Average (KBOI) Record (KBOI)
Temperature  
Mean Temperature 37 °F 37 °F  
Max Temperature 46 °F 45 °F 66 °F (1930)
Min Temperature 26 °F 29 °F 4 °F (1993)
Degree Days  
Heating Degree Days 28 28  
Month to date heating degree days 509  
Since 1 July heating degree days 3870  
Cooling Degree Days 0 0  
Month to date cooling degree days 0  
Year to date cooling degree days 0  
Moisture  
Dew Point 21 °F    
Average Humidity 54    
Maximum Humidity 75    
Minimum Humidity 34    
Precipitation  
Precipitation 0.00 in 0.04 in 1.02 in (1891)
Month to date precipitation 0.59  
Year to date precipitation 1.83  
Snow  
Snow 0.00 in 0.10 in 1.70 in (1993)
Month to date snowfall 2.0  
Since 1 July snowfall 16.8  
Snow Depth -    
Sea Level Pressure  
Sea Level Pressure 30.08 in    
Wind  
Wind Speed 9 mph (NW)    
Max Wind Speed 16 mph    
Max Gust Speed 23 mph    
Visibility 10 miles    
Events      
T = Trace of Precipitation, MM = Missing Value Source: NWS Daily Summary

Daily Weather History Graph

Daily Weather History Graph

Search for Another Location

Airport:

Trip Planner

Search our weather history database for the weather conditions in past years. The results will help you decide how hot, cold, wet, or windy it might be!

Date:

Astronomy

Feb. 17, 2013 Rise Set
Actual Time 7:41 AM MST 6:20 PM MST
Civil Twilight 7:12 AM MST 6:49 PM MST
Nautical Twilight 6:38 AM MST 7:22 PM MST
Astronomical Twilight 6:05 AM MST 7:56 PM MST
Moon 11:22 AM MST (2/17) 1:34 AM MST (2/17)
Length of Visible Light 11h 36m
Length of Day
10h 38m
Waxing Crescent, 49% of the Moon is Illuminated
Feb 17
Waxing Crescent
Feb 17
First Quarter
Feb 25
Full
Mar 4
Last Quarter
Mar 11
New

Hourly Weather History & Observations

Time (MST) Temp. Windchill Dew Point Humidity Pressure Visibility Wind Dir Wind Speed Gust Speed Precip Events Conditions
12:15 AM 37.4 °F - 30.2 °F 75% 30.03 in 10.0 mi Calm Calm - N/A   Scattered Clouds
12:35 AM 37.4 °F 32.8 °F 30.2 °F 75% 30.03 in 10.0 mi NNW 5.8 mph - N/A   Clear
12:55 AM 37.4 °F 30.8 °F 28.4 °F 70% 30.04 in 10.0 mi NW 9.2 mph - N/A   Clear
1:15 AM 37.4 °F 30.3 °F 28.4 °F 70% 30.04 in 10.0 mi NNW 10.4 mph - N/A   Clear
1:35 AM 37.4 °F 29.3 °F 26.6 °F 65% 30.04 in 10.0 mi NW 12.7 mph - N/A   Clear
1:55 AM 37.4 °F 30.3 °F 26.6 °F 65% 30.04 in 10.0 mi NW 10.4 mph - N/A   Clear
2:15 AM 35.6 °F 27.5 °F 24.8 °F 65% 30.04 in 10.0 mi WNW 11.5 mph - N/A   Clear
2:35 AM 35.6 °F 27.5 °F 24.8 °F 65% 30.04 in 10.0 mi NW 11.5 mph - N/A   Clear
2:55 AM 35.6 °F 27.5 °F 23.0 °F 60% 30.04 in 10.0 mi NW 11.5 mph - N/A   Clear
3:15 AM 35.6 °F 28.0 °F 21.2 °F 56% 30.04 in 10.0 mi West 10.4 mph - N/A   Clear
3:35 AM 33.8 °F 25.3 °F 21.2 °F 60% 30.05 in 10.0 mi WNW 11.5 mph - N/A   Scattered Clouds
3:55 AM 33.8 °F 26.4 °F 21.2 °F 60% 30.04 in 10.0 mi WNW 9.2 mph - N/A   Mostly Cloudy
4:15 AM 33.8 °F 27.7 °F 23.0 °F 65% 30.05 in 10.0 mi NW 6.9 mph - N/A   Overcast
4:35 AM 33.8 °F 26.4 °F 21.2 °F 60% 30.04 in 10.0 mi West 9.2 mph - N/A   Overcast
4:55 AM 33.8 °F 24.3 °F 21.2 °F 60% 30.04 in 10.0 mi WNW 13.8 mph - N/A   Scattered Clouds
5:15 AM 33.8 °F 24.8 °F 21.2 °F 60% 30.05 in 10.0 mi WNW 12.7 mph - N/A   Clear
5:35 AM 32.0 °F 22.1 °F 19.4 °F 60% 30.05 in 10.0 mi WNW 13.8 mph - N/A   Clear
5:55 AM 33.8 °F 24.3 °F 19.4 °F 56% 30.06 in 10.0 mi WNW 13.8 mph - N/A   Clear
6:15 AM 33.8 °F 24.3 °F 19.4 °F 56% 30.06 in 10.0 mi WNW 13.8 mph - N/A   Clear
6:35 AM 32.0 °F 21.6 °F 19.4 °F 60% 30.06 in 10.0 mi WNW 15.0 mph - N/A   Clear
7:15 AM 30.2 °F 21.3 °F 19.4 °F 64% 30.07 in 10.0 mi WNW 10.4 mph - N/A   Clear
7:35 AM 30.2 °F 20.2 °F 19.4 °F 64% 30.08 in 10.0 mi WNW 12.7 mph - N/A   Clear
7:55 AM 30.2 °F 22.6 °F 19.4 °F 64% 30.08 in 10.0 mi WNW 8.1 mph - N/A   Clear
8:15 AM 30.2 °F 24.3 °F 19.4 °F 64% 30.09 in 10.0 mi West 5.8 mph - N/A   Clear
8:35 AM 32.0 °F 24.8 °F 21.2 °F 64% 30.09 in 10.0 mi West 8.1 mph - N/A   Clear
8:55 AM 33.8 °F 27.7 °F 19.4 °F 56% 30.10 in 10.0 mi West 6.9 mph - N/A   Clear
9:15 AM 35.6 °F 29.9 °F 21.2 °F 56% 30.11 in 10.0 mi NNW 6.9 mph - N/A   Clear
9:35 AM 35.6 °F 29.9 °F 21.2 °F 56% 30.12 in 10.0 mi WNW 6.9 mph - N/A   Clear
10:15 AM 37.4 °F 29.8 °F 23.0 °F 56% 30.12 in 10.0 mi WNW 11.5 mph - N/A   Clear
10:35 AM 39.2 °F 31.2 °F 23.0 °F 52% 30.12 in 10.0 mi WNW 13.8 mph - N/A   Clear
10:55 AM 41.0 °F 33.5 °F 24.8 °F 53% 30.12 in 10.0 mi NNW 13.8 mph - N/A   Scattered Clouds
11:15 AM 41.0 °F 33.1 °F 23.0 °F 49% 30.12 in 10.0 mi NW 15.0 mph 19.6 mph N/A   Scattered Clouds
11:35 AM 41.0 °F 33.1 °F 24.8 °F 53% 30.11 in 10.0 mi WNW 15.0 mph - N/A   Partly Cloudy
11:55 AM 42.8 °F 37.0 °F 24.8 °F 49% 30.11 in 10.0 mi NW 10.4 mph 18.4 mph N/A   Partly Cloudy
12:15 PM 42.8 °F 36.2 °F 24.8 °F 49% 30.10 in 10.0 mi NW 12.7 mph - N/A   Partly Cloudy
12:35 PM 42.8 °F 39.3 °F 23.0 °F 46% 30.10 in 10.0 mi WNW 5.8 mph - N/A   Clear
1:15 PM 44.6 °F 40.2 °F 23.0 °F 43% 30.09 in 10.0 mi NNW 8.1 mph - N/A   Clear
1:35 PM 44.6 °F 40.2 °F 24.8 °F 46% 30.08 in 10.0 mi NW 8.1 mph 16.1 mph N/A   Partly Cloudy
1:55 PM 44.6 °F 38.1 °F 24.8 °F 46% 30.08 in 10.0 mi West 13.8 mph - N/A   Partly Cloudy
2:15 PM 46.4 °F 39.8 °F 23.0 °F 40% 30.09 in 10.0 mi WNW 16.1 mph 20.7 mph N/A   Mostly Cloudy
2:35 PM 44.6 °F 37.8 °F 21.2 °F 39% 30.09 in 10.0 mi WNW 15.0 mph 20.7 mph N/A   Mostly Cloudy
2:55 PM 46.4 °F 40.1 °F 21.2 °F 37% 30.09 in 10.0 mi WNW 15.0 mph 23.0 mph N/A   Mostly Cloudy
3:15 PM 46.4 °F 40.1 °F 21.2 °F 37% 30.08 in 10.0 mi NW 15.0 mph 23.0 mph N/A   Scattered Clouds
3:35 PM 46.4 °F 40.7 °F 21.2 °F 37% 30.08 in 10.0 mi NW 12.7 mph 19.6 mph N/A   Partly Cloudy
3:55 PM 46.4 °F 41.1 °F 19.4 °F 34% 30.08 in 10.0 mi NW 11.5 mph - N/A   Scattered Clouds
4:15 PM 46.4 °F 41.5 °F 21.2 °F 37% 30.08 in 10.0 mi NW 10.4 mph 16.1 mph N/A   Scattered Clouds
4:35 PM 44.6 °F 40.2 °F 19.4 °F 37% 30.08 in 10.0 mi NW 8.1 mph - N/A   Clear
4:55 PM 44.6 °F 38.4 °F 19.4 °F 37% 30.08 in 10.0 mi NW 12.7 mph - N/A   Clear
5:15 PM 44.6 °F 39.2 °F 19.4 °F 37% 30.08 in 10.0 mi WNW 10.4 mph - N/A   Clear
5:35 PM 44.6 °F 38.8 °F 19.4 °F 37% 30.08 in 10.0 mi NW 11.5 mph - N/A   Clear
5:55 PM 42.8 °F 36.6 °F 19.4 °F 39% 30.08 in 10.0 mi NW 11.5 mph - N/A   Clear
6:15 PM 42.8 °F 38.6 °F 19.4 °F 39% 30.09 in 10.0 mi NNW 6.9 mph - N/A   Clear
6:35 PM 39.2 °F 35.0 °F 19.4 °F 45% 30.09 in 10.0 mi NNW 5.8 mph - N/A   Clear
6:55 PM 37.4 °F 34.9 °F 19.4 °F 48% 30.09 in 10.0 mi North 3.5 mph - N/A   Clear
7:15 PM 39.2 °F 35.9 °F 19.4 °F 45% 30.09 in 10.0 mi North 4.6 mph - N/A   Clear
7:35 PM 37.4 °F 33.8 °F 19.4 °F 48% 30.09 in 10.0 mi NNE 4.6 mph - N/A   Clear
7:55 PM 33.8 °F 27.7 °F 19.4 °F 56% 30.09 in 10.0 mi NNE 6.9 mph - N/A   Clear
8:15 PM 33.8 °F 27.7 °F 19.4 °F 56% 30.09 in 10.0 mi NNE 6.9 mph - N/A   Clear
8:35 PM 33.8 °F - 19.4 °F 56% 30.09 in 10.0 mi Calm Calm - N/A   Clear
8:55 PM 35.6 °F - 19.4 °F 52% 30.10 in 10.0 mi Calm Calm - N/A   Clear
9:15 PM 33.8 °F 30.8 °F 19.4 °F 56% 30.10 in 10.0 mi SE 3.5 mph - N/A   Clear
9:35 PM 32.0 °F - 17.6 °F 55% 30.10 in 10.0 mi Calm Calm - N/A   Clear
9:55 PM 33.8 °F 30.8 °F 19.4 °F 56% 30.10 in 10.0 mi South 3.5 mph - N/A   Clear
10:15 PM 30.2 °F - 19.4 °F 64% 30.10 in 10.0 mi Calm Calm - N/A   Clear
10:35 PM 30.2 °F - 17.6 °F 60% 30.10 in 10.0 mi Calm Calm - N/A   Clear
10:55 PM 28.4 °F - 17.6 °F 64% 30.10 in 10.0 mi Calm Calm - N/A   Clear
11:15 PM 28.4 °F 23.3 °F 17.6 °F 64% 30.11 in 10.0 mi South 4.6 mph - N/A   Clear
11:35 PM 28.4 °F 23.3 °F 19.4 °F 69% 30.11 in 10.0 mi South 4.6 mph - N/A   Clear
11:55 PM 26.6 °F 22.6 °F 17.6 °F 69% 30.11 in 10.0 mi East 3.5 mph - N/A   Clear